FW9110 Weather Reports


Display with metric or nautical units.
time (UTC)temp
F
wind
direction
speed
MPH
gust
MPH
rain 1hr
in
rain 24hr
in
rain mn
in
humidity
%
barometer
mb
20260507060146 54 29 3.0 3.0 0.00 0.14 0.14 95 1010.0
20260507055642 54 357 2.0 3.0 0.00 0.14 0.14 95 1010.2
20260507055138 54 19 3.0 5.0 0.00 0.14 0.14 95 1010.2
20260507054634 55 328 1.0 1.0 0.00 0.14 0.14 95 1009.6
20260507054131 55 330 0.0 0.0 0.00 0.14 0.14 95 1009.8
20260507053629 55 15 2.0 2.0 0.07 0.14 0.14 95 1010.0
20260507053127 55 300 1.0 1.0 0.07 0.14 0.14 95 1010.0
20260507052625 55 329 0.0 0.0 0.00 0.13 0.13 95 1009.9
20260507052120 55 347 1.0 1.0 0.00 0.13 0.13 95 1009.9
20260507051618 55 322 1.0 2.0 0.05 0.13 0.13 95 1009.7
20260507051115 55 57 2.0 5.0 0.12 0.13 0.13 95 1009.8
20260507050612 56 303 0.0 0.0 0.07 0.12 0.12 95 1010.2
20260507050109 56 352 1.0 1.0 0.24 0.11 0.11 94 1010.0
20260507045605 56 321 1.0 2.0 0.66 0.11 0.11 93 1009.8
20260507045102 57 313 3.0 5.0 0.50 0.08 0.08 91 1010.1
20260507044559 58 270 1.0 2.0 0.07 0.01 0.01 89 1009.1
20260507044056 58 338 1.0 1.0 0.00 0.00 0.00 88 1009.5
20260507043551 58 291 0.0 1.0 0.00 0.00 0.00 89 1009.4
20260507043049 59 303 0.0 1.0 0.00 0.00 0.00 89 1009.8
20260507042545 58 313 1.0 1.0 0.00 0.00 0.00 88 1009.4
20260507042040 59 312 0.0 1.0 0.00 0.00 0.00 88 1009.2
20260507041538 59 356 3.0 3.0 0.00 0.00 0.00 88 1009.1
20260507041034 59 14 2.0 3.0 0.00 0.00 0.00 87 1009.2
20260507040531 59 345 2.0 2.0 0.00 0.00 0.00 87 1009.1
20260507040027 59 333 1.0 1.0 0.00 0.15 0.15 87 1009.1
20260507035523 59 266 3.0 3.0 0.00 0.15 0.15 86 1009.2
20260507035020 59 5 0.0 2.0 0.00 0.15 0.15 86 1009.0
20260507034517 59 41 2.0 2.0 0.00 0.15 0.15 85 1009.5
20260507034015 60 339 2.0 2.0 0.00 0.15 0.15 85 1009.5
20260507033513 60 346 3.0 3.0 0.00 0.15 0.15 84 1009.2
20260507033010 60 0 2.0 2.0 0.00 0.15 0.15 84 1008.9
20260507032506 60 312 1.0 2.0 0.00 0.15 0.15 84 1009.0
20260507032003 61 25 3.0 6.0 0.00 0.15 0.15 84 1009.0
20260507031459 61 336 2.0 3.0 0.00 0.15 0.15 84 1008.9
20260507030955 61 7 3.0 3.0 0.00 0.15 0.15 84 1008.7
20260507030453 62 347 2.0 5.0 0.00 0.15 0.15 84 1008.7
20260507025950 62 319 2.0 3.0 0.00 0.15 0.15 84 1008.9
20260507025447 62 19 3.0 5.0 0.00 0.15 0.15 84 1009.1
20260507024945 62 7 2.0 2.0 0.00 0.15 0.15 86 1008.9
20260507024442 62 22 3.0 5.0 0.00 0.15 0.15 89 1008.6
20260507023938 63 342 1.0 2.0 0.00 0.15 0.15 89 1008.6
20260507023435 63 297 2.0 3.0 0.00 0.15 0.15 90 1008.4
20260507022932 63 340 2.0 2.0 0.00 0.15 0.15 90 1008.5
20260507022429 64 338 1.0 2.0 0.00 0.15 0.15 90 1008.3
20260507021924 64 14 3.0 3.0 0.00 0.15 0.15 90 1008.4
20260507021420 64 333 1.0 1.0 0.00 0.15 0.15 91 1008.4
20260507020918 64 307 0.0 0.0 0.00 0.15 0.15 90 1008.5
20260507020414 64 330 0.0 1.0 0.00 0.15 0.15 91 1008.4
20260507015911 64 310 0.0 1.0 0.00 0.15 0.15 92 1008.5
20260507015410 64 297 1.0 1.0 0.00 0.15 0.15 94 1008.5
20260507014907 64 325 0.0 0.0 0.00 0.15 0.15 94 1008.6
20260507014403 65 294 0.0 0.0 0.00 0.15 0.15 93 1008.5
20260507013859 65 294 0.0 0.0 0.00 0.15 0.15 93 1008.5
20260507013356 65 294 0.0 0.0 0.00 0.15 0.15 92 1008.6
20260507012854 65 291 0.0 0.0 0.05 0.15 0.15 91 1008.8
20260507012349 65 322 0.0 0.0 0.05 0.15 0.15 90 1008.7
20260507011841 65 336 0.0 0.0 0.00 0.14 0.14 89 1008.4
20260507011338 65 323 1.0 1.0 0.00 0.14 0.14 89 1008.4
20260507010837 65 302 0.0 0.0 0.00 0.14 0.14 89 1008.4
20260507010333 65 302 0.0 0.0 0.00 0.14 0.14 89 1008.2
20260507005831 65 302 0.0 0.0 0.00 0.14 0.14 88 1008.2
20260507005327 65 302 0.0 0.0 0.00 0.14 0.14 88 1008.2
20260507004824 65 302 0.0 0.0 0.00 0.14 0.14 88 1008.4
20260507004321 66 315 0.0 0.0 0.00 0.14 0.14 88 1008.1
20260507003818 66 300 0.0 0.0 0.00 0.14 0.14 88 1008.0
20260507003314 66 300 0.0 0.0 0.00 0.14 0.14 87 1007.8
20260507002809 66 298 0.0 0.0 0.00 0.14 0.14 87 1007.8
20260507002306 66 299 0.0 0.0 0.00 0.14 0.14 87 1007.9
20260507001757 66 322 0.0 0.0 0.00 0.14 0.14 88 1008.0
20260507001254 66 298 0.0 0.0 0.00 0.14 0.14 87 1008.0
20260507000750 66 298 1.0 1.0 0.00 0.14 0.14 87 1007.9
20260507000246 66 296 1.0 1.0 0.00 0.14 0.14 87 1007.5
20260506235743 66 289 0.0 0.0 0.00 0.14 0.14 87 1007.5
20260506235238 66 289 0.0 0.0 0.00 0.14 0.14 86 1007.7
20260506234736 67 289 0.0 0.0 0.00 0.14 0.14 86 1007.4
20260506234233 67 289 0.0 0.0 0.00 0.14 0.14 86 1007.4
20260506233730 67 289 0.0 0.0 0.00 0.14 0.14 86 1007.3
20260506233227 67 289 0.0 0.0 0.00 0.14 0.14 85 1007.3
20260506232723 67 289 0.0 0.0 0.00 0.14 0.14 85 1007.3
20260506232218 67 289 0.0 0.0 0.00 0.14 0.14 84 1007.3
20260506231716 68 278 1.0 1.0 0.00 0.14 0.14 84 1007.2
20260506231214 67 290 0.0 0.0 0.00 0.14 0.14 84 1007.5
20260506230710 68 292 0.0 0.0 0.00 0.14 0.14 83 1007.6
20260506230207 68 285 0.0 0.0 0.00 0.14 0.14 83 1007.4
20260506225704 68 286 0.0 1.0 0.00 0.14 0.14 83 1007.4
20260506225201 68 289 0.0 0.0 0.00 0.14 0.14 83 1007.3
20260506224657 68 290 0.0 0.0 0.00 0.14 0.14 83 1007.4
20260506224154 68 290 0.0 0.0 0.00 0.14 0.14 83 1007.2
20260506223650 68 300 1.0 1.0 0.00 0.14 0.14 82 1007.1
20260506223146 68 303 0.0 1.0 0.00 0.14 0.14 81 1007.4
20260506222643 68 304 0.0 0.0 0.00 0.14 0.14 81 1007.4
20260506222139 68 290 0.0 0.0 0.00 0.14 0.14 82 1007.3
20260506221637 69 282 0.0 0.0 0.00 0.14 0.14 81 1007.3
20260506221135 68 316 0.0 1.0 0.00 0.14 0.14 81 1007.3
20260506220632 68 300 0.0 1.0 0.00 0.14 0.14 82 1007.2
20260506220127 69 283 1.0 1.0 0.00 0.14 0.14 80 1007.2
20260506215624 69 324 1.0 1.0 0.00 0.14 0.14 79 1007.3
20260506215119 69 300 1.0 1.0 0.00 0.14 0.14 79 1007.4
20260506214616 69 294 1.0 1.0 0.00 0.14 0.14 78 1007.1
20260506214114 70 304 0.0 1.0 0.00 0.14 0.14 78 1007.0
20260506213612 70 321 1.0 2.0 0.00 0.14 0.14 79 1006.9
20260506213108 69 286 1.0 1.0 0.00 0.14 0.14 79 1007.1
20260506212606 69 307 0.0 0.0 0.00 0.14 0.14 79 1007.0
20260506212100 70 303 1.0 1.0 0.00 0.14 0.14 78 1007.1
20260506211556 70 291 0.0 1.0 0.00 0.14 0.14 78 1007.0
20260506211054 70 242 1.0 2.0 0.00 0.14 0.14 76 1006.9
20260506210550 70 301 0.0 0.0 0.00 0.14 0.14 76 1006.9
20260506210047 70 301 0.0 1.0 0.00 0.14 0.14 77 1007.0
20260506205544 70 314 1.0 2.0 0.00 0.14 0.14 76 1007.1
20260506205039 70 272 2.0 2.0 0.00 0.14 0.14 77 1006.7
20260506204537 69 292 1.0 2.0 0.00 0.14 0.14 76 1006.9
20260506204034 70 247 2.0 2.0 0.00 0.14 0.14 77 1006.9
20260506203532 70 237 1.0 2.0 0.00 0.14 0.14 75 1007.0
20260506203028 71 349 3.0 5.0 0.00 0.14 0.14 75 1006.8
20260506202526 71 262 1.0 2.0 0.00 0.14 0.14 74 1006.9
20260506202022 71 300 2.0 2.0 0.00 0.14 0.14 73 1006.8
20260506201520 72 261 3.0 6.0 0.00 0.14 0.14 73 1006.9
20260506201016 70 349 3.0 7.0 0.00 0.14 0.14 73 1006.8
20260506200512 70 335 2.0 3.0 0.00 0.14 0.14 75 1006.9
20260506200009 71 288 1.0 2.0 0.00 0.14 0.14 75 1006.8
20260506195506 71 294 1.0 2.0 0.00 0.14 0.14 75 1006.8
20260506195002 69 322 4.0 7.0 0.00 0.14 0.14 76 1006.9
20260506194500 69 282 3.0 6.0 0.00 0.14 0.14 77 1006.9
20260506193956 69 256 1.0 2.0 0.00 0.14 0.14 76 1006.9
20260506193454 69 286 3.0 3.0 0.00 0.14 0.14 77 1007.0
20260506192944 70 288 3.0 5.0 0.00 0.14 0.14 77 1006.9
20260506192442 69 318 2.0 2.0 0.00 0.14 0.14 80 1007.0
20260506191938 69 248 4.0 5.0 0.00 0.14 0.14 78 1007.1
20260506191435 68 322 1.0 1.0 0.00 0.14 0.14 80 1007.4
20260506190931 66 228 3.0 5.0 0.00 0.14 0.14 82 1007.6
20260506190428 66 214 3.0 3.0 0.00 0.14 0.14 84 1007.6
20260506185925 66 292 1.0 2.0 0.00 0.14 0.14 84 1007.6
20260506185422 65 273 1.0 2.0 0.00 0.14 0.14 85 1007.5
20260506184919 65 321 1.0 2.0 0.00 0.14 0.14 86 1007.6
20260506184416 65 300 1.0 1.0 0.00 0.14 0.14 87 1007.5
20260506183914 64 311 1.0 1.0 0.00 0.14 0.14 88 1007.6
20260506183409 64 256 3.0 5.0 0.00 0.14 0.14 88 1007.6
20260506182906 64 316 0.0 1.0 0.00 0.14 0.14 88 1007.5
20260506182403 64 264 1.0 2.0 0.00 0.14 0.14 89 1007.6
20260506181900 64 300 1.0 2.0 0.00 0.14 0.14 89 1007.8
20260506181358 64 294 2.0 3.0 0.00 0.14 0.14 90 1007.8
20260506180855 63 278 2.0 2.0 0.00 0.14 0.14 91 1007.9
20260506180351 63 285 2.0 2.0 0.00 0.14 0.14 91 1008.0
20260506175848 63 303 0.0 1.0 0.00 0.14 0.14 92 1007.8
20260506175344 63 229 3.0 6.0 0.00 0.14 0.14 92 1007.8
20260506174842 63 314 1.0 1.0 0.00 0.14 0.14 92 1007.9
20260506174339 63 205 4.0 7.0 0.00 0.14 0.14 92 1007.8
20260506173837 62 147 3.0 5.0 0.00 0.14 0.14 93 1008.2
20260506173333 62 338 1.0 1.0 0.00 0.14 0.14 93 1008.0
20260506172830 62 310 1.0 2.0 0.00 0.14 0.14 94 1007.9
20260506172327 62 302 3.0 3.0 0.00 0.14 0.14 94 1007.9
20260506171824 62 309 4.0 5.0 0.00 0.14 0.14 94 1007.9
20260506171321 61 301 2.0 2.0 0.00 0.14 0.14 94 1007.8
20260506170819 61 325 3.0 5.0 0.00 0.14 0.14 94 1008.0
20260506170315 61 265 4.0 5.0 0.00 0.14 0.14 95 1008.1
20260506165814 61 325 2.0 3.0 0.00 0.14 0.14 95 1008.2
20260506165311 61 313 0.0 1.0 0.00 0.14 0.14 95 1008.1
20260506164808 61 333 2.0 3.0 0.00 0.14 0.14 95 1008.2
20260506164304 61 297 2.0 3.0 0.00 0.14 0.14 95 1008.1
20260506163801 60 334 2.0 3.0 0.00 0.14 0.14 95 1008.2
20260506163256 60 247 2.0 3.0 0.00 0.14 0.14 95 1008.2
20260506162752 60 297 3.0 3.0 0.00 0.14 0.14 95 1008.2
20260506162250 61 259 4.0 5.0 0.00 0.14 0.14 95 1008.3
20260506161747 61 232 3.0 3.0 0.00 0.14 0.14 95 1008.4
20260506161244 61 289 3.0 5.0 0.00 0.14 0.14 95 1008.4
20260506160742 61 321 0.0 0.0 0.00 0.14 0.14 95 1008.2
20260506160238 61 240 1.0 2.0 0.00 0.14 0.14 95 1008.3
20260506155737 60 203 2.0 3.0 0.00 0.14 0.14 95 1008.5
20260506155233 60 259 4.0 6.0 0.00 0.14 0.14 95 1008.4
20260506153341 61 260 0.0 1.0 0.07 0.14 0.14 95 1008.8
20260506152838 60 312 2.0 3.0 0.07 0.14 0.14 95 1009.0
20260506152335 60 13 2.0 5.0 0.05 0.13 0.13 95 1008.8
20260506151833 61 311 1.0 1.0 0.12 0.13 0.13 95 1009.1
20260506151330 61 280 2.0 3.0 0.07 0.12 0.12 95 1009.3
20260506150827 61 323 2.0 2.0 0.00 0.11 0.11 95 1009.2
20260506150324 61 305 1.0 2.0 0.05 0.11 0.11 95 1009.1
20260506145820 61 280 1.0 2.0 0.05 0.11 0.11 95 1009.3
20260506145317 61 288 1.0 1.0 0.07 0.10 0.10 95 1009.2
20260506144815 61 300 0.0 1.0 0.12 0.10 0.10 95 1008.8
20260506144311 61 314 1.0 2.0 0.05 0.09 0.09 95 1009.0
20260506143810 61 308 0.0 1.0 0.07 0.08 0.08 95 1008.9
20260506143306 61 303 1.0 2.0 0.07 0.08 0.08 95 1008.8
20260506142804 61 318 0.0 1.0 0.05 0.07 0.07 95 1009.0
20260506142305 61 313 0.0 0.0 0.12 0.07 0.07 95 1009.0
20260506141800 61 319 2.0 3.0 0.12 0.06 0.06 95 1009.1
20260506141258 61 288 1.0 1.0 0.05 0.05 0.05 95 1009.2
20260506140755 61 303 2.0 3.0 0.07 0.04 0.04 95 1009.4
20260506140252 61 315 1.0 1.0 0.14 0.04 0.04 94 1009.4
20260506135749 61 306 1.0 2.0 0.07 0.03 0.03 93 1009.4
20260506135245 62 298 0.0 1.0 0.05 0.02 0.02 93 1009.1
20260506134742 62 281 2.0 2.0 0.05 0.02 0.02 92 1009.3
20260506134238 62 302 1.0 1.0 0.00 0.01 0.01 92 1009.1
20260506133736 62 208 5.0 7.0 0.07 0.01 0.01 91 1009.2
20260506133232 62 258 1.0 2.0 0.07 0.01 0.01 91 1009.4
20260506132729 62 299 1.0 1.0 0.00 0.00 0.00 90 1009.4
20260506132226 63 289 0.0 1.0 0.00 0.00 0.00 89 1009.0
20260506131724 63 258 1.0 2.0 0.00 0.00 0.00 88 1008.9
20260506131220 63 301 1.0 1.0 0.00 0.00 0.00 88 1008.8
20260506130717 64 295 0.0 0.0 0.00 0.00 0.00 88 1008.9
20260506130214 63 270 2.0 3.0 0.00 0.00 0.00 87 1008.9
20260506125712 63 315 0.0 0.0 0.00 0.00 0.00 87 1009.0
20260506125210 63 302 0.0 1.0 0.00 0.00 0.00 87 1009.0
20260506124708 63 207 2.0 3.0 0.00 0.00 0.00 86 1009.2
20260506124206 63 292 1.0 2.0 0.00 0.00 0.00 86 1009.1
20260506123702 63 303 1.0 2.0 0.00 0.00 0.00 85 1009.2
20260506123202 63 306 0.0 0.0 0.00 0.00 0.00 84 1009.2
20260506122658 63 212 3.0 5.0 0.00 0.00 0.00 84 1009.3
20260506122155 63 274 2.0 3.0 0.00 0.00 0.00 84 1009.3
20260506121653 63 260 2.0 3.0 0.00 0.00 0.00 83 1009.4
20260506121149 63 276 2.0 3.0 0.00 0.00 0.00 83 1009.4
20260506120647 63 308 0.0 1.0 0.00 0.00 0.00 83 1009.4
20260506120144 64 289 2.0 3.0 0.00 0.00 0.00 82 1009.3
20260506115642 64 315 0.0 1.0 0.00 0.00 0.00 82 1009.3
20260506115140 64 287 2.0 2.0 0.00 0.00 0.00 81 1009.0
20260506114637 64 329 1.0 1.0 0.00 0.00 0.00 81 1009.0
20260506114135 64 297 3.0 3.0 0.00 0.00 0.00 81 1008.9
20260506113634 64 216 2.0 3.0 0.00 0.00 0.00 82 1008.8
20260506113130 64 282 3.0 5.0 0.00 0.00 0.00 82 1008.8
20260506112626 64 290 3.0 3.0 0.00 0.00 0.00 82 1008.9
20260506112124 64 307 2.0 5.0 0.00 0.00 0.00 82 1008.9
20260506111622 63 214 2.0 3.0 0.00 0.00 0.00 82 1008.8
20260506111119 63 315 1.0 2.0 0.00 0.00 0.00 82 1008.8
20260506110616 63 53 4.0 6.0 0.00 0.00 0.00 83 1008.8
20260506110114 63 295 1.0 1.0 0.00 0.00 0.00 83 1008.7
20260506105610 63 292 2.0 3.0 0.00 0.00 0.00 83 1008.7
20260506105107 63 235 4.0 6.0 0.00 0.00 0.00 83 1008.7
20260506104606 63 283 4.0 6.0 0.00 0.00 0.00 83 1008.6
20260506104102 63 216 3.0 5.0 0.00 0.00 0.00 83 1008.7
20260506103600 62 319 2.0 3.0 0.00 0.00 0.00 84 1008.5
20260506103056 62 312 3.0 3.0 0.00 0.00 0.00 84 1008.6
20260506102555 62 208 3.0 3.0 0.00 0.00 0.00 84 1008.4
20260506102052 62 306 3.0 6.0 0.00 0.00 0.00 84 1008.4
20260506101548 62 301 1.0 2.0 0.00 0.00 0.00 84 1008.7
20260506101045 62 294 0.0 1.0 0.00 0.00 0.00 83 1008.6
20260506100544 62 252 2.0 2.0 0.00 0.00 0.00 84 1008.5
20260506100041 62 257 5.0 7.0 0.00 0.00 0.00 84 1008.5
20260506095540 62 300 1.0 2.0 0.00 0.00 0.00 83 1008.6
20260506095036 62 317 1.0 1.0 0.00 0.00 0.00 83 1008.4
20260506094534 63 208 2.0 3.0 0.00 0.00 0.00 83 1008.3
20260506094032 63 310 1.0 2.0 0.00 0.00 0.00 83 1008.5
20260506093530 63 280 3.0 5.0 0.00 0.00 0.00 83 1008.5
20260506093027 63 344 2.0 2.0 0.00 0.00 0.00 83 1008.5
20260506092525 63 262 2.0 3.0 0.00 0.00 0.00 82 1008.5
20260506092021 63 310 3.0 3.0 0.00 0.00 0.00 82 1008.7
20260506091520 63 266 1.0 2.0 0.00 0.00 0.00 82 1008.4
20260506091016 63 274 1.0 2.0 0.00 0.00 0.00 82 1008.8
20260506090514 63 297 0.0 0.0 0.00 0.00 0.00 82 1008.6
20260506090010 63 336 2.0 2.0 0.00 0.00 0.00 81 1008.8
20260506085507 63 302 1.0 2.0 0.00 0.00 0.00 81 1008.7
20260506085004 63 295 0.0 1.0 0.00 0.00 0.00 81 1008.7
20260506084501 63 318 2.0 2.0 0.00 0.00 0.00 81 1008.9
20260506083956 64 351 1.0 2.0 0.00 0.00 0.00 81 1008.8
20260506083454 64 201 2.0 5.0 0.00 0.00 0.00 81 1008.9
20260506082951 64 308 1.0 2.0 0.00 0.00 0.00 81 1008.4
20260506082448 64 258 3.0 3.0 0.00 0.00 0.00 80 1008.5
20260506081944 64 258 3.0 3.0 0.00 0.00 0.00 80 1008.5
20260506081442 64 287 3.0 5.0 0.00 0.00 0.00 79 1008.6
20260506080939 64 299 3.0 5.0 0.00 0.00 0.00 79 1008.6
20260506080436 65 323 2.0 3.0 0.00 0.00 0.00 79 1008.8
20260506073420 65 316 2.0 3.0 0.00 0.00 0.00 76 1008.8
20260506072918 65 317 0.0 0.0 0.00 0.00 0.00 76 1009.0
20260506072414 66 322 0.0 0.0 0.00 0.00 0.00 76 1009.0
20260506071912 66 273 2.0 2.0 0.00 0.00 0.00 75 1008.9
20260506071410 66 278 0.0 1.0 0.00 0.00 0.00 75 1008.8
20260506070907 66 57 3.0 3.0 0.00 0.00 0.00 75 1009.1
20260506070403 66 326 0.0 1.0 0.00 0.00 0.00 75 1008.9
20260506062341 65 255 1.0 3.0 0.00 0.00 0.00 75 1009.3
20260506061837 65 247 2.0 2.0 0.00 0.00 0.00 74 1009.1
20260506061333 65 282 1.0 1.0 0.00 0.00 0.00 75 1009.3
20260506060832 65 313 0.0 1.0 0.00 0.00 0.00 75 1009.1